Wind_Speed
38 39 35 32 28 28 26 23 20 19 18 17 16 15 16 17 19 19 18 17 16 14 12 11 11 11 10 9 7 7 5 3 2 2 1 10 8 9 1 5 12 6 5 9 14 15 17
39 39 39 36 32 29 28 26 24 22 20 19 18 16 16 17 18 20 21 19 17 16 14 13 12 11 11 10 10 8 6 5 2 1 1 11 9 10 6 8 10 5 3 8 9 11 13
40 39 41 39 36 32 29 29 27 25 23 22 20 18 17 15 17 20 21 21 20 18 17 15 13 12 10 8 7 7 6 6 5 4 4 12 14 14 3 3 6 2 6 12 8 8 12
40 40 39 41 39 35 32 30 29 27 25 23 22 21 19 17 18 20 22 23 22 20 19 17 15 14 12 10 9 8 8 7 7 5 3 10 11 8 5 15 8 4 11 9 11 6 9
38 39 38 40 42 39 35 32 30 28 26 24 22 22 20 19 19 20 23 24 24 22 21 18 17 16 14 13 11 10 8 7 6 6 4 8 9 7 7 2 6 5 17 12 11 5 7
36 36 37 37 41 41 38 34 31 29 27 25 23 22 19 19 20 21 24 26 26 25 23 21 19 17 15 13 11 10 10 8 7 7 5 9 8 6 4 25 10 19 1 4 3 5 8
33 34 35 35 36 40 40 36 33 30 28 26 24 22 19 18 19 22 24 28 28 28 25 22 19 17 16 13 11 10 10 10 10 9 8 4 9 2 5 21 6 7 3 4 5 5 7
31 31 33 34 34 36 39 39 35 32 29 27 25 23 20 19 20 22 25 29 29 22 25 23 21 18 15 15 12 11 10 11 11 10 15 4 10 6 19 18 4 4 11 3 3 5 6
28 30 31 32 33 33 36 40 38 35 32 29 27 24 20 18 20 23 26 28 27 27 27 24 22 20 17 15 13 12 11 10 9 11 12 10 12 12 14 11 9 10 5 3 3 3 9
25 28 30 32 32 32 34 38 39 37 35 32 29 26 22 20 22 25 27 27 26 26 24 24 23 21 19 17 15 14 12 9 10 14 14 14 16 13 13 5 8 21 4 8 7 2 18
24 26 29 31 32 32 33 35 39 39 38 35 32 29 24 22 23 27 27 26 26 25 17 27 26 21 20 19 14 13 13 12 11 13 20 11 20 13 10 6 17 6 14 9 6 8 5
25 26 29 31 33 34 33 34 37 39 39 39 36 32 27 24 24 26 28 27 27 27 20 26 25 23 21 17 17 14 14 14 13 14 14 16 20 14 11 11 9 10 5 2 9 13 9
26 28 30 31 33 35 35 35 35 38 40 41 39 36 31 27 24 25 27 29 29 26 29 24 23 22 19 17 16 15 13 12 11 12 13 15 16 14 13 13 8 9 8 9 14 20 13
26 29 31 32 34 36 37 37 36 36 40 42 42 40 35 31 28 27 27 29 32 27 26 25 21 21 20 18 17 15 14 13 13 12 13 16 16 16 14 14 11 10 10 11 15 13 19
26 30 32 33 35 37 38 39 38 37 38 41 42 43 40 36 33 30 29 29 26 32 32 25 22 21 19 18 18 15 13 13 13 11 16 13 17 15 17 19 16 11 15 11 10 10 15
26 29 33 34 37 37 39 40 41 39 39 39 42 44 43 41 38 35 33 30 34 37 30 27 25 22 20 20 18 16 15 14 12 12 14 15 20 20 19 18 16 16 12 11 12 9 6
27 29 32 36 38 39 39 41 41 41 41 39 39 44 44 44 42 40 37 33 37 30 30 28 26 26 23 22 18 17 16 15 14 14 16 18 15 13 21 16 13 15 13 16 15 14 8
27 30 32 36 38 40 40 41 42 42 43 41 40 42 44 45 44 42 40 39 41 35 33 31 30 26 23 22 20 17 16 17 17 17 16 14 12 17 15 12 10 13 14 14 15 14 11
28 28 30 35 39 40 42 41 42 43 43 43 42 43 42 45 45 44 43 48 39 38 36 34 31 30 27 25 22 19 19 21 16 18 17 17 16 12 12 14 10 12 14 16 17 18 20
29 28 30 33 39 40 42 42 42 43 44 43 43 41 41 43 46 49 48 43 41 40 40 39 35 33 29 27 24 23 24 19 19 20 18 17 15 12 12 10 12 14 12 12 15 16 13
28 29 29 31 37 41 41 44 43 43 43 43 43 41 46 43 44 43 46 43 43 44 41 36 35 30 28 28 26 23 21 22 21 20 18 16 15 14 16 18 13 14 14 13 14 17 19
28 30 29 30 34 42 41 43 44 44 44 43 44 46 42 43 44 44 44 46 43 43 40 39 35 31 28 26 24 21 20 23 22 20 18 17 14 21 17 17 14 18 16 16 18 15 14
27 29 27 29 32 41 42 43 44 44 45 44 44 42 42 42 40 39 40 42 43 44 43 40 36 33 33 29 32 22 23 16 16 20 18 14 14 15 13 10 15 17 16 17 17 17 16
27 27 26 27 31 38 43 40 43 45 45 44 43 43 42 42 41 41 43 46 47 45 42 41 39 36 37 38 27 28 28 28 30 24 19 20 22 19 15 16 17 13 15 19 16 20 18
26 26 25 26 31 37 41 43 41 44 45 44 43 44 44 43 39 42 48 43 42 40 39 41 41 45 42 29 29 30 31 31 29 31 30 22 23 20 20 19 19 16 19 22 20 21 16
24 25 24 24 29 34 40 42 41 43 44 44 43 43 44 44 42 47 42 42 40 40 41 42 35 37 31 30 27 29 24 22 23 25 31 29 24 30 24 23 21 18 32 29 30 22 28
22 24 25 24 27 33 40 43 41 43 43 43 43 43 44 45 44 44 41 41 40 38 34 40 37 35 34 31 23 22 22 21 24 26 23 23 26 26 22 25 22 27 32 32 36 28 29
20 22 24 24 25 32 39 43 42 44 42 42 42 43 44 45 46 44 44 45 44 42 24 37 35 33 32 33 25 23 23 27 29 29 23 24 20 19 20 23 21 34 32 33 32 31 30
20 20 23 24 24 30 36 43 43 45 43 41 41 41 42 43 43 41 42 41 41 43 47 42 39 36 35 28 26 29 28 32 27 19 23 27 26 27 26 30 34 33 32 31 29 31 35
Wind_Direction
233 230 230 232 227 225 224 219 216 216 213 212 210 208 209 209 210 206 201 195 194 190 187 188 188 195 195 201 181 209 210 212 266 310 4 133 103 114 308 156 147 302 70 36 45 53 47
232 228 227 228 228 225 225 222 218 218 218 217 213 210 208 208 208 207 206 200 198 197 195 195 193 193 194 195 202 208 204 196 185 125 69 127 186 182 176 181 351 113 2 8 32 49 38
228 227 224 224 226 225 224 224 222 220 219 218 217 216 215 212 211 211 208 203 201 199 199 200 197 194 192 196 184 185 184 158 126 115 112 123 163 142 191 266 195 193 353 350 11 30 33
224 226 223 222 222 223 222 223 223 223 222 219 217 218 218 216 215 213 208 204 202 200 200 202 200 196 189 184 175 164 149 145 126 114 133 129 156 172 143 233 212 214 281 49 343 12 24
222 224 222 221 221 220 221 220 222 222 223 221 220 220 219 218 219 215 206 202 201 201 200 200 200 197 193 193 184 174 166 153 143 145 149 120 155 98 258 158 187 331 0 45 358 350 14
220 221 221 220 220 219 219 220 219 220 221 221 220 221 222 222 221 216 205 200 199 200 198 199 198 195 196 191 188 180 164 153 151 159 159 120 100 82 324 261 212 86 318 20 60 333 1
221 219 220 218 218 219 218 219 219 218 217 217 218 220 221 224 221 214 204 197 197 199 198 199 195 194 197 197 186 184 179 165 162 166 166 131 125 176 251 291 8 147 181 151 283 329 12
219 218 219 218 216 218 218 217 218 217 216 213 212 214 215 220 218 210 202 197 200 199 197 195 194 195 197 194 190 187 177 165 157 162 138 252 213 160 212 226 195 225 244 136 337 306 37
217 217 218 219 216 215 217 216 216 215 214 212 209 210 209 213 212 204 196 197 196 193 196 194 197 197 197 192 187 184 181 183 172 171 174 207 199 234 234 232 233 272 265 270 255 274 264
217 218 218 220 219 215 216 216 215 213 212 211 209 208 204 205 206 198 194 195 191 193 197 201 200 202 200 198 197 194 195 190 173 176 204 187 267 245 222 208 250 294 350 255 262 338 350
223 220 218 220 221 218 216 217 215 214 212 211 210 208 204 201 200 197 195 190 190 192 190 204 201 197 202 206 195 203 202 197 181 177 208 195 237 238 228 224 239 228 264 247 293 315 306
233 226 222 219 221 221 218 216 216 214 213 212 212 210 207 200 199 199 198 194 192 193 201 214 202 200 201 205 204 205 209 209 206 196 209 198 252 243 233 250 229 258 254 297 317 247 242
239 233 228 222 220 221 220 218 216 216 214 213 213 213 210 204 201 199 199 200 198 195 216 200 202 199 206 210 215 215 219 224 221 224 221 216 228 233 248 243 245 260 281 307 289 298 291
238 237 232 229 223 220 221 220 216 216 215 214 214 215 213 210 205 203 200 203 207 200 216 200 205 207 212 218 226 227 229 234 233 219 218 232 244 256 248 253 227 251 266 259 302 304 320
241 237 234 231 228 222 220 220 219 215 216 214 214 215 214 215 212 209 206 209 206 214 217 209 212 211 212 220 226 229 232 233 235 222 217 229 257 248 250 256 261 258 255 261 261 290 296
244 238 234 230 229 226 221 219 218 216 216 215 214 215 215 214 215 214 212 208 213 215 213 216 218 220 222 228 226 227 234 233 230 219 214 218 228 231 255 259 257 256 227 257 271 259 283
247 241 234 230 227 226 223 220 218 216 216 214 213 215 213 214 215 216 216 216 224 219 217 216 214 222 223 226 224 229 234 235 225 228 229 221 244 245 257 264 258 262 260 235 222 261 279
249 241 236 229 226 224 223 220 218 215 216 212 212 215 213 214 214 216 216 219 220 221 221 221 228 224 218 225 221 222 211 236 226 231 235 226 227 227 266 265 250 229 250 240 239 270 272
249 244 236 229 225 222 221 219 218 215 214 213 210 215 214 213 213 214 216 221 221 224 224 225 225 222 217 217 217 210 216 240 232 236 230 223 226 226 238 256 268 259 243 230 236 242 254
247 243 238 231 223 222 218 216 216 215 213 212 210 210 212 212 213 213 215 218 221 223 224 224 225 225 222 223 220 223 234 235 237 228 224 220 208 217 221 266 245 269 258 253 239 240 247
247 243 238 231 224 218 217 214 212 213 213 211 208 208 208 208 212 211 218 216 218 222 223 222 226 223 221 220 220 225 229 232 239 229 224 210 207 217 237 237 245 254 260 257 246 240 229
244 241 237 231 223 217 216 213 210 209 211 210 208 209 207 209 209 210 214 217 217 220 221 223 222 217 214 216 220 217 214 233 238 234 234 220 210 222 229 237 253 258 247 242 260 249 243
242 240 236 231 221 215 214 212 211 209 210 210 208 206 207 210 208 210 212 214 214 217 218 218 216 214 213 209 207 194 207 219 235 226 231 226 225 241 239 243 243 257 264 249 252 257 263
242 239 234 230 219 214 212 210 211 209 208 208 206 206 207 206 208 205 209 210 210 217 217 219 219 217 216 219 218 224 229 223 227 222 210 244 234 230 239 227 256 268 245 238 242 254 255
243 237 233 230 217 212 212 212 211 208 207 206 204 204 204 205 203 205 211 211 213 215 217 222 216 216 220 212 212 218 226 231 230 232 227 234 239 241 247 257 259 257 274 278 258 247 243
246 236 230 227 220 212 209 209 211 207 206 205 203 202 201 204 202 204 207 209 209 213 216 222 220 220 215 210 206 219 219 237 239 250 237 234 244 239 244 249 252 254 246 243 248 250 240
248 236 228 226 220 214 210 206 207 204 204 204 202 200 201 204 209 205 204 202 208 209 220 216 217 217 213 213 209 221 219 224 230 224 244 237 245 250 254 259 256 253 255 245 251 254 251
248 235 228 230 225 216 209 206 203 202 201 204 202 200 201 203 206 203 205 206 204 203 196 223 211 215 211 210 209 217 217 239 235 228 239 245 245 247 252 251 245 250 257 252 250 247 240
244 233 226 227 227 217 210 207 202 199 200 201 201 200 199 202 204 205 207 208 209 214 195 211 203 202 202 201 200 205 223 219 228 232 243 241 241 227 223 233 246 256 259 267 264 258 255
Height
5842 5847 5852 5856 5860 5863 5867 5869 5871 5873 5876 5878 5881 5883 5885 5888 5890 5893 5896 5898 5900 5902 5904 5906 5908 5910 5912 5913 5916 5916 5918 5919 5920 5921 5922 5924 5928 5929 5932 5936 5923 5930 5925 5921 5920 5918 5917
5834 5838 5844 5849 5854 5858 5861 5865 5868 5870 5873 5876 5878 5881 5883 5886 5888 5890 5893 5896 5899 5901 5904 5905 5908 5909 5911 5913 5913 5915 5917 5918 5919 5920 5922 5925 5927 5927 5931 5933 5922 5930 5925 5923 5921 5920 5918
5824 5830 5835 5841 5848 5852 5856 5860 5864 5867 5870 5872 5875 5878 5880 5883 5885 5887 5890 5894 5897 5900 5902 5904 5907 5908 5910 5913 5913 5914 5916 5917 5919 5920 5922 5924 5925 5927 5931 5933 5929 5928 5926 5923 5921 5921 5920
5815 5821 5827 5833 5840 5846 5850 5855 5859 5862 5866 5869 5872 5875 5877 5880 5882 5885 5888 5891 5895 5898 5900 5903 5906 5908 5910 5911 5913 5914 5916 5917 5918 5920 5921 5923 5924 5925 5928 5929 5929 5929 5924 5894 5921 5923 5921
5807 5813 5819 5825 5832 5839 5844 5849 5854 5858 5861 5865 5869 5871 5874 5877 5878 5882 5885 5889 5892 5895 5899 5902 5905 5907 5909 5910 5912 5913 5915 5917 5918 5920 5921 5922 5923 5926 5931 5930 5933 5930 5913 5927 5926 5925 5923
5799 5806 5812 5818 5825 5831 5838 5844 5849 5854 5857 5861 5865 5867 5870 5872 5875 5878 5882 5886 5889 5893 5897 5900 5903 5907 5908 5910 5911 5913 5915 5916 5918 5920 5921 5923 5924 5931 5932 5917 5917 5922 5936 5932 5931 5927 5925
5794 5799 5806 5812 5818 5825 5831 5838 5843 5848 5853 5857 5861 5864 5867 5869 5871 5875 5879 5883 5888 5891 5894 5899 5902 5904 5906 5909 5911 5913 5914 5916 5918 5919 5920 5922 5929 5936 5940 5924 5927 5930 5932 5930 5928 5928 5927
5788 5793 5800 5806 5811 5817 5825 5832 5837 5843 5848 5853 5857 5861 5864 5867 5869 5872 5876 5880 5885 5892 5893 5897 5900 5902 5905 5908 5910 5912 5914 5916 5918 5919 5921 5930 5929 5928 5932 5929 5931 5931 5927 5928 5928 5928 5928
5784 5788 5794 5800 5806 5811 5818 5825 5832 5838 5843 5848 5853 5858 5862 5864 5867 5870 5874 5879 5883 5887 5891 5895 5898 5901 5904 5907 5909 5912 5914 5916 5917 5918 5925 5932 5926 5930 5930 5929 5930 5933 5936 5929 5928 5928 5924
5781 5784 5789 5795 5800 5805 5812 5819 5826 5832 5838 5844 5849 5854 5859 5862 5866 5868 5872 5877 5882 5886 5891 5894 5896 5899 5902 5905 5908 5911 5913 5916 5917 5919 5927 5930 5929 5929 5929 5929 5930 5924 5924 5927 5928 5927 5920
5777 5781 5785 5790 5795 5800 5806 5812 5819 5826 5832 5838 5845 5850 5855 5860 5862 5867 5872 5875 5880 5885 5892 5891 5893 5898 5900 5904 5908 5910 5912 5914 5916 5919 5925 5930 5928 5927 5927 5932 5928 5932 5926 5927 5927 5927 5931
5774 5777 5781 5785 5790 5795 5801 5806 5812 5819 5826 5832 5839 5845 5851 5856 5859 5864 5869 5874 5878 5884 5886 5886 5891 5895 5898 5902 5905 5908 5910 5913 5915 5918 5920 5927 5927 5924 5925 5929 5926 5926 5925 5926 5927 5923 5925
5769 5772 5776 5779 5784 5790 5795 5801 5806 5812 5819 5826 5833 5840 5846 5851 5857 5861 5866 5871 5877 5880 5881 5886 5889 5893 5897 5900 5903 5906 5908 5911 5914 5916 5918 5920 5923 5922 5922 5924 5924 5924 5925 5929 5927 5917 5916
5762 5765 5769 5774 5778 5783 5789 5794 5800 5806 5812 5819 5827 5833 5841 5846 5852 5857 5862 5867 5872 5878 5880 5883 5887 5891 5895 5898 5901 5903 5906 5908 5910 5913 5920 5919 5921 5920 5921 5920 5924 5929 5931 5930 5925 5927 5918
5755 5758 5761 5766 5771 5776 5781 5787 5793 5799 5805 5812 5820 5827 5834 5840 5846 5852 5858 5862 5870 5872 5875 5881 5885 5888 5892 5895 5899 5900 5903 5905 5907 5911 5915 5922 5922 5923 5919 5918 5918 5921 5922 5925 5926 5928 5927
5747 5750 5752 5757 5762 5768 5774 5779 5786 5792 5798 5805 5812 5819 5827 5834 5840 5846 5852 5858 5860 5864 5872 5878 5882 5886 5890 5893 5896 5898 5899 5902 5904 5907 5909 5916 5916 5918 5917 5914 5916 5916 5921 5926 5926 5925 5925
5738 5741 5744 5748 5753 5759 5765 5771 5777 5785 5791 5799 5805 5811 5819 5826 5833 5839 5846 5852 5855 5863 5868 5873 5878 5881 5887 5889 5892 5894 5897 5899 5901 5903 5905 5908 5911 5916 5910 5911 5912 5914 5914 5917 5922 5922 5924
5730 5731 5735 5739 5743 5749 5756 5763 5769 5776 5783 5791 5798 5803 5810 5818 5827 5833 5839 5845 5849 5856 5862 5867 5872 5878 5883 5885 5889 5892 5896 5895 5897 5899 5900 5903 5909 5909 5909 5907 5909 5912 5915 5914 5919 5921 5921
5721 5723 5725 5729 5734 5739 5745 5753 5760 5767 5774 5782 5789 5795 5803 5810 5818 5825 5832 5834 5844 5850 5856 5861 5867 5872 5877 5881 5885 5888 5890 5890 5894 5895 5896 5898 5901 5906 5909 5910 5906 5907 5908 5910 5915 5919 5919
5712 5713 5716 5719 5724 5729 5735 5743 5751 5758 5765 5773 5782 5789 5795 5802 5808 5815 5821 5831 5837 5843 5848 5854 5860 5865 5872 5876 5879 5882 5883 5886 5888 5890 5891 5894 5898 5903 5910 5910 5911 5906 5904 5905 5907 5912 5915
5702 5703 5706 5709 5713 5719 5725 5733 5741 5749 5757 5764 5772 5779 5784 5794 5801 5809 5815 5824 5829 5834 5841 5848 5853 5860 5866 5870 5873 5877 5879 5880 5881 5884 5886 5889 5892 5898 5903 5903 5904 5904 5904 5903 5903 5906 5908
5692 5693 5696 5700 5703 5709 5716 5723 5730 5739 5747 5755 5762 5768 5780 5786 5792 5800 5807 5813 5822 5827 5834 5841 5847 5854 5860 5864 5869 5873 5876 5875 5877 5879 5881 5885 5889 5891 5893 5896 5898 5899 5899 5900 5901 5899 5901
5683 5685 5688 5691 5694 5700 5707 5714 5722 5730 5738 5745 5753 5761 5770 5779 5787 5795 5801 5807 5814 5819 5826 5833 5840 5846 5852 5858 5859 5868 5871 5874 5875 5875 5879 5883 5886 5889 5890 5895 5894 5894 5893 5895 5898 5898 5899
5674 5677 5679 5682 5686 5691 5699 5706 5713 5722 5729 5738 5747 5755 5764 5771 5780 5787 5792 5797 5804 5810 5819 5825 5833 5839 5841 5847 5857 5860 5863 5865 5867 5871 5877 5877 5878 5881 5884 5887 5888 5890 5891 5890 5890 5894 5895
5666 5668 5671 5674 5678 5683 5691 5699 5706 5713 5721 5729 5738 5746 5754 5764 5770 5778 5781 5790 5798 5806 5814 5818 5824 5826 5833 5845 5850 5853 5856 5857 5861 5864 5868 5872 5873 5876 5878 5881 5883 5884 5886 5883 5884 5886 5889
5659 5661 5664 5667 5671 5676 5681 5690 5698 5706 5714 5722 5730 5739 5747 5755 5761 5766 5777 5784 5793 5799 5804 5809 5820 5824 5832 5837 5844 5845 5851 5854 5856 5857 5860 5864 5866 5868 5871 5872 5876 5879 5872 5875 5874 5876 5873
5651 5654 5657 5660 5663 5668 5673 5682 5690 5699 5707 5714 5723 5731 5739 5747 5754 5762 5770 5778 5786 5793 5799 5804 5811 5818 5825 5831 5839 5846 5848 5852 5854 5856 5857 5856 5858 5860 5863 5863 5866 5866 5862 5866 5868 5872 5867
5644 5647 5650 5654 5657 5661 5666 5674 5683 5692 5700 5708 5717 5724 5732 5739 5746 5753 5762 5770 5779 5787 5795 5797 5806 5811 5819 5825 5833 5839 5842 5842 5844 5844 5847 5849 5852 5856 5857 5858 5860 5853 5856 5856 5856 5857 5857
5637 5640 5643 5647 5650 5654 5660 5666 5675 5685 5694 5702 5711 5718 5726 5733 5742 5751 5758 5766 5773 5780 5784 5788 5795 5801 5806 5817 5824 5828 5829 5832 5834 5838 5840 5841 5843 5845 5849 5847 5844 5844 5845 5846 5847 5847 5846